Regional Weather Roundup
Issued by NWS

Home | Current Version | Previous Version | Graphics & Text | Print | Product List | Glossary On
Versions: 1 2 3 4 5 6 7 8 9 10 11 12 13 14 15 16 17 18 19 20 21 22 23 24 25 26 27 28 29 30 31 32 33 34 35 36 37 38 39 40 41 42 43 44 45 46 47 48 49 50
000
ASUS43 KLSX 051057
RWRMO

WEATHER SUMMARY FOR MISSOURI
NATIONAL WEATHER SERVICE SPRINGFIELD MO
600 AM CDT SAT SEP 05 2015

NOTE: "FAIR" INDICATES FEW OR NO CLOUDS BELOW 12,000 FEET WITH NO
       SIGNIFICANT WEATHER AND/OR OBSTRUCTIONS TO VISIBILITY.
       CURRENT SKY AND/OR WEATHER CONDITIONS ARE NOT AVAILABLE FOR
       CHILLICOTHE AND FARMINGTON.

MOZ001>031-035>038-043-044-053-054-051200-
...NORTHERN AND WESTERN MISSOURI...

CITY           SKY/WX    TMP DP  RH WIND       PRES   REMARKS
KANSAS CTY INT CLEAR     73  68  84 SE9       30.01R
LEE`S SUMMIT   CLEAR     75  68  78 S7        30.02S
ST JOSEPH      CLEAR     72  69  90 S5        29.99R
CHILLICOTHE      N/A     72  69  90 SE3       30.03S

$$
MOZ066>068-077>081-088>096-101>105-051200-
...SOUTHWEST MISSOURI...

CITY           SKY/WX    TMP DP  RH WIND       PRES   REMARKS
SPRINGFIELD    CLEAR     74  67  78 SE10      30.06R
JOPLIN         CLEAR     73  68  84 S7        30.03R

$$
MOZ032>034-039>042-045>050-055>058-069>072-051200-
...CENTRAL MISSOURI...

CITY           SKY/WX    TMP DP  RH WIND       PRES   REMARKS
COLUMBIA       NOT AVBL
JEFFERSON CITY CLEAR     69  67  93 CALM      30.05R
ROLLA          CLEAR     71  67  87 S7        30.07R
SEDALIA        CLEAR     71  68  90 S7        30.05S

$$
MOZ051-052-059>065-051200-
...EAST CENTRAL MISSOURI...

CITY           SKY/WX    TMP DP  RH WIND       PRES   REMARKS
ST LOUIS INTL  CLEAR     77  67  71 CALM      30.07R

$$
MOZ072>076-082>087-097>100-106>115-051200-
...SOUTH CENTRAL AND SOUTHEAST MISSOURI...

CITY           SKY/WX    TMP DP  RH WIND       PRES   REMARKS
CAPE GIRARDEAU FOG       67  67 100 CALM      30.06R VSB 1/4
POPLAR BLUFF   CLEAR     68  67  96 CALM      30.04R
WEST PLAINS    CLEAR     67  65  93 CALM      30.10S FOG

$$



USA.gov is the U.S. government's official web portal to all federal, state and local government web resources and services.